Showing default

COSMOS 1261, 12376

Orbit data source: Space-Track

COSMOS 1261, 12376 is a payload satellite owned by PVO (CIS) in HEO that was launched on Tue, 31 Mar 1981 UTC via an MOLNIYA 8K78M launch vehicle from the Plesetsk Missile And Space Complex (PKMTR). Payload-class satellites include a variety of spacecraft equipped with specific instruments for various scientific and technological missions. These include communications satellites like Starlink; space stations such as the ISS; scientific satellites like the Hubble; Earth observation satellites from companies like Planet Labs, Umbra, and HawkEye 360; GPS; miniature CubeSats for education and research; and military/defense satellites.

Loading next visibility...
Identifier
12376, 1981-031A
Orbit
HEO
Country
Flag of CISCIS
Related business
Manufacturer
NPOL/KOMET
Mission
Defense Early Warn
Bus & Motor
OKO, Unknown motor
Mass
~1,250 kg wet, ~1,150 kg dry
Launch date (UTC)
1981-03-31 (44 years ago)
Launch vehicle
MOLNIYA 8K78M
Launch site
Plesetsk Missile And Space Complex (PKMTR)
Object type
Payload
Rocket body
Debris
Shape & HBR
Irr + 6 Pan, 2.1 m
Radar Cross Section
15.540 m², Large (>1 m²)

Expand to show TLE details & history
Last TLE update: 22 hours ago

TLE from 22 hours ago
0 COSMOS 1261
1 12376U 81031A   25258.18722632  .00000585  00000-0  00000-0 0  9993
2 12376  68.5944 105.8018 6007516 357.7421   0.5867  2.00884885221952
Epoch: 2025-09-15T04:29Z
TLE epoch observation values (Epoch: 2025-09-15T04:29:36.354Z)
Latitude
-0.00012°
Longitude
44.0073°
Altitude
4,230.859 km
Speed
7.754 km/s
True Right ascension
07h 03m 13s
True Declination
0° 00' 00"
Sunlit
Object was in daylight at epoch
Visualization orbit readout
Latitude
Unknown
Longitude
Unknown
Altitude
Unknown
Speed
Unknown
Apparent Right ascension
Unknown
Apparent Declination
Unknown
Sunlit
N/A
Visualization observer readout
Local Sidereal Time
19:08:48
Azimuth
Unknown
Elevation
Unknown
Doppler factor
Unknown
Orbital elements
Apogee altitude
36,091.503 km
Perigee altitude
4,214.347 km
Semi-major axis
26,531.062 km
Eccentricity
0.60075
Inclination
68.5944°
RAAN
105.8018°
Arg. of periapsis
357.7421°
True anomaly
2.94151°
Mean anomaly
0.5867°
Eccentric anomaly
1.46927°
Mean motion
0.50224 °/min
Orbital period
716.79 mins
BSTAR
0
Loading maneuver chart data...
Computing Atmospheric mass density...
Loading historical data...
Loading historical data...
Loading historical data...
Loading historical data...
Loading historical data...
Loading historical data...
Loading historical data...

Documentation

Showing up to 5 results
|